,,Stat6,,Stat2,,Stat8,,Stat9,,Stat10,,Wind1,,Wind1,
time,status,PA1M_AVG,status,PR1M_SUM,status,RH1M_AVG,status,SR1M_AVG,status,TA1M_AVG,status,W1dAve1m,status,W1sAve1m,
2004-09-07, 00:00:00,VALID,918.786,VALID,0,VALID,99.414,VALID,0,VALID,19.7956,VALID,176,VALID,0.0275298,
2004-09-07, 00:01:00,VALID,918.774,VALID,0,VALID,99.2729,VALID,-0.0169808,VALID,19.7993,VALID,176,VALID,0.0335366,
2004-09-07, 00:02:00,VALID,918.757,VALID,0,VALID,99.0186,VALID,0,VALID,19.7802,VALID,176,VALID,0.046131,
2004-09-07, 00:03:00,VALID,918.738,VALID,0,VALID,98.9372,VALID,-0.0339617,VALID,19.741,VALID,176,VALID,0,
2004-09-07, 00:04:00,VALID,918.717,VALID,0,VALID,99.0033,VALID,0,VALID,19.7472,VALID,176,VALID,0,
2004-09-07, 00:05:00,VALID,918.712,VALID,0,VALID,98.9881,VALID,-0.0169808,VALID,19.7541,VALID,176,VALID,0,
2004-09-07, 00:06:00,VALID,918.712,VALID,0,VALID,99.0262,VALID,0,VALID,19.7638,VALID,176,VALID,0,
2004-09-07, 00:07:00,VALID,918.723,VALID,0,VALID,99.1597,VALID,0,VALID,19.7631,VALID,176,VALID,0,
2004-09-07, 00:08:00,VALID,918.711,VALID,0,VALID,99.4725,VALID,0,VALID,19.812,VALID,176,VALID,0.241211,
2004-09-07, 00:09:00,VALID,918.706,VALID,0,VALID,99.6302,VALID,0,VALID,19.8562,VALID,176,VALID,0.201079,
2004-09-07, 00:10:00,VALID,918.685,VALID,0,VALID,99.5984,VALID,0,VALID,19.9084,VALID,176,VALID,0.0643601,
2004-09-07, 00:11:00,VALID,918.685,VALID,0,VALID,99.6366,VALID,-0.0169808,VALID,19.9146,VALID,176,VALID,0.0109012,
2004-09-07, 00:12:00,VALID,918.695,VALID,0,VALID,99.4471,VALID,-0.0169808,VALID,19.9114,VALID,176,VALID,0.142805,
2004-09-07, 00:13:00,VALID,918.7,VALID,0,VALID,98.8075,VALID,0,VALID,19.8408,VALID,176,VALID,0.316797,
2004-09-07, 00:14:00,VALID,918.691,VALID,0,VALID,98.5799,VALID,0,VALID,19.7343,VALID,176,VALID,0.34048,
2004-09-07, 00:15:00,VALID,918.694,VALID,0,VALID,98.4909,VALID,0.0169808,VALID,19.6761,VALID,176,VALID,0.0571057,
2004-09-07, 00:16:00,VALID,918.687,VALID,0,VALID,98.3561,VALID,-0.0339617,VALID,19.6121,VALID,176,VALID,0.21548,
2004-09-07, 00:17:00,VALID,918.686,VALID,0,VALID,98.894,VALID,-0.0169808,VALID,19.6016,VALID,169,VALID,0.436166,
2004-09-07, 00:18:00,VALID,918.686,VALID,0,VALID,98.5684,VALID,0,VALID,19.5567,VALID,164,VALID,0.351563,
2004-09-07, 00:19:00,VALID,918.673,VALID,0,VALID,98.351,VALID,0,VALID,19.4893,VALID,152,VALID,0.430618,
2004-09-07, 00:20:00,VALID,918.657,VALID,0,VALID,98.8609,VALID,-0.0339617,VALID,19.4697,VALID,142,VALID,0.413504,
2004-09-07, 00:21:00,VALID,918.638,VALID,0,VALID,99.2271,VALID,-0.0169808,VALID,19.4759,VALID,131,VALID,0.212891,
2004-09-07, 00:22:00,VALID,918.635,VALID,0,VALID,99.306,VALID,0,VALID,19.4893,VALID,131,VALID,0.294271,
2004-09-07, 00:23:00,VALID,918.621,VALID,0,VALID,99.5285,VALID,0.0169808,VALID,19.4861,VALID,131,VALID,0.701029,
2004-09-07, 00:24:00,VALID,918.609,VALID,0,VALID,99.6404,VALID,-0.0339617,VALID,19.499,VALID,130,VALID,0.847842,
2004-09-07, 00:25:00,VALID,918.602,VALID,0,VALID,99.8159,VALID,-0.0169808,VALID,19.5214,VALID,130,VALID,0.725632,
2004-09-07, 00:26:00,VALID,918.597,VALID,0,VALID,99.7548,VALID,0,VALID,19.5117,VALID,134,VALID,0.775298,
2004-09-07, 00:27:00,VALID,918.593,VALID,0,VALID,99.7726,VALID,-0.0339617,VALID,19.4893,VALID,136,VALID,0.738281,
2004-09-07, 00:28:00,VALID,918.578,VALID,0,VALID,99.91,VALID,-0.0339617,VALID,19.506,VALID,136,VALID,0.753005,
2004-09-07, 00:29:00,VALID,918.575,VALID,0,VALID,99.9301,VALID,-0.0339617,VALID,19.4958,VALID,135,VALID,1.12773,
2004-09-07, 00:30:00,VALID,918.559,VALID,0,VALID,99.999,VALID,0,VALID,19.509,VALID,134,VALID,0.901953,
2004-09-07, 00:31:00,VALID,918.538,VALID,0,VALID,99.9608,VALID,-0.0339617,VALID,19.4797,VALID,131,VALID,0.857851,
2004-09-07, 00:32:00,VALID,918.498,VALID,0,VALID,99.9868,VALID,-0.0339617,VALID,19.467,VALID,129,VALID,0.841463,
2004-09-07, 00:33:00,VALID,918.505,VALID,0,VALID,100,VALID,-0.0169808,VALID,19.4441,VALID,130,VALID,0.94779,
2004-09-07, 00:34:00,VALID,918.472,VALID,0,VALID,100,VALID,0,VALID,19.4345,VALID,129,VALID,0.740371,
2004-09-07, 00:35:00,VALID,918.456,VALID,0,VALID,100,VALID,0,VALID,19.4019,VALID,109,VALID,0.322917,
2004-09-07, 00:36:00,VALID,918.447,VALID,0,VALID,100,VALID,0,VALID,19.3669,VALID,109,VALID,0.437119,
2004-09-07, 00:37:00,VALID,918.433,VALID,0,VALID,100,VALID,-0.0169808,VALID,19.3286,VALID,109,VALID,0.15298,
2004-09-07, 00:38:00,VALID,918.414,VALID,0,VALID,100,VALID,0,VALID,19.2988,VALID,109,VALID,0,
2004-09-07, 00:39:00,VALID,918.413,VALID,0,VALID,100,VALID,-0.0169808,VALID,19.2963,VALID,109,VALID,0.057706,
2004-09-07, 00:40:00,VALID,918.407,VALID,0,VALID,100,VALID,0,VALID,19.2765,VALID,109,VALID,0.328506,
2004-09-07, 00:41:00,VALID,918.393,VALID,0,VALID,100,VALID,0,VALID,19.244,VALID,108,VALID,0.390067,
2004-09-07, 00:42:00,VALID,918.382,VALID,0,VALID,100,VALID,0,VALID,19.2504,VALID,102,VALID,0.0852273,
2004-09-07, 00:43:00,VALID,918.373,VALID,0,VALID,100,VALID,-0.0169808,VALID,19.2571,VALID,103,VALID,0.190168,
2004-09-07, 00:44:00,VALID,918.356,VALID,0,VALID,100,VALID,0.0169808,VALID,19.2211,VALID,104,VALID,0.238281,
2004-09-07, 00:45:00,VALID,918.338,VALID,0,VALID,100,VALID,0,VALID,19.2405,VALID,344,VALID,0.588415,
2004-09-07, 00:46:00,VALID,918.325,VALID,0,VALID,100,VALID,0.0169808,VALID,19.2631,VALID,324,VALID,0.404514,
2004-09-07, 00:47:00,VALID,918.339,VALID,0,VALID,100,VALID,0,VALID,19.2795,VALID,346,VALID,0.00872093,
2004-09-07, 00:48:00,VALID,918.324,VALID,0,VALID,100,VALID,-0.0339617,VALID,19.2536,VALID,346,VALID,0,
2004-09-07, 00:49:00,VALID,918.312,VALID,0,VALID,99.9865,VALID,0.0169808,VALID,19.1602,VALID,349,VALID,0.332667,
2004-09-07, 00:50:00,VALID,918.312,VALID,0,VALID,99.8184,VALID,0.0169808,VALID,19.0535,VALID,17,VALID,0.829901,
2004-09-07, 00:51:00,VALID,918.29,VALID,0,VALID,99.7218,VALID,0,VALID,18.9633,VALID,16,VALID,0.950893,
2004-09-07, 00:52:00,VALID,918.26,VALID,0,VALID,100,VALID,0.0169808,VALID,18.9951,VALID,14,VALID,0.825893,
2004-09-07, 00:53:00,VALID,918.241,VALID,0,VALID,100,VALID,0,VALID,19.1213,VALID,352,VALID,0.715511,
2004-09-07, 00:54:00,VALID,918.23,VALID,0,VALID,100,VALID,0,VALID,19.2151,VALID,332,VALID,0.564215,
2004-09-07, 00:55:00,VALID,918.241,VALID,0,VALID,100,VALID,0.0339617,VALID,19.2633,VALID,338,VALID,0.212271,
2004-09-07, 00:56:00,VALID,918.249,VALID,0,VALID,100,VALID,0.0169808,VALID,19.309,VALID,338,VALID,0,
2004-09-07, 00:57:00,VALID,918.252,VALID,0,VALID,100,VALID,0,VALID,19.3349,VALID,272,VALID,0.239644,
2004-09-07, 00:58:00,VALID,918.263,VALID,0,VALID,100,VALID,0,VALID,19.2954,VALID,181,VALID,0.913154,
2004-09-07, 00:59:00,VALID,918.229,VALID,0,VALID,100,VALID,0,VALID,19.2534,VALID,175,VALID,0.677782,
2004-09-07, 01:00:00,VALID,918.201,VALID,0,VALID,100,VALID,0,VALID,19.2345,VALID,161,VALID,0.708333,
2004-09-07, 01:01:00,VALID,918.187,VALID,0,VALID,100,VALID,0,VALID,19.2574,VALID,180,VALID,0.457031,
2004-09-07, 01:02:00,VALID,918.159,VALID,0,VALID,100,VALID,0,VALID,19.2934,VALID,183,VALID,0.134859,
2004-09-07, 01:03:00,VALID,918.128,VALID,0,VALID,100,VALID,0.0169808,VALID,19.3346,VALID,183,VALID,0.0355283,
2004-09-07, 01:04:00,VALID,918.139,VALID,0,VALID,100,VALID,0,VALID,19.3729,VALID,183,VALID,0.0109012,
2004-09-07, 01:05:00,VALID,918.126,VALID,0,VALID,100,VALID,0.0169808,VALID,19.4156,VALID,183,VALID,0.0565972,
2004-09-07, 01:06:00,VALID,918.107,VALID,0,VALID,100,VALID,0.0169808,VALID,19.428,VALID,183,VALID,0.0230741,
2004-09-07, 01:07:00,VALID,918.087,VALID,0,VALID,100,VALID,0,VALID,19.431,VALID,183,VALID,0.0093006,
2004-09-07, 01:08:00,VALID,918.062,VALID,0,VALID,100,VALID,0,VALID,19.4474,VALID,183,VALID,0,
2004-09-07, 01:09:00,VALID,918.046,VALID,0,VALID,100,VALID,0,VALID,19.434,VALID,179,VALID,0.0346236,
2004-09-07, 01:10:00,VALID,918.034,VALID,0,VALID,100,VALID,0.0169808,VALID,19.4414,VALID,95,VALID,0.434375,
2004-09-07, 01:11:00,VALID,918.027,VALID,0,VALID,100,VALID,0,VALID,19.4213,VALID,77,VALID,0.380504,
2004-09-07, 01:12:00,VALID,918.02,VALID,0,VALID,100,VALID,0,VALID,19.4282,VALID,77,VALID,0.0239826,
2004-09-07, 01:13:00,VALID,918.001,VALID,0,VALID,100,VALID,0.0339617,VALID,19.424,VALID,77,VALID,0,
2004-09-07, 01:14:00,VALID,917.981,VALID,0,VALID,100,VALID,0.0169808,VALID,19.4377,VALID,77,VALID,0,
2004-09-07, 01:15:00,VALID,917.978,VALID,0,VALID,100,VALID,0.0169808,VALID,19.4377,VALID,77,VALID,0,
2004-09-07, 01:16:00,VALID,917.98,VALID,0,VALID,100,VALID,0.0169808,VALID,19.4218,VALID,77,VALID,0,
2004-09-07, 01:17:00,VALID,917.981,VALID,0,VALID,100,VALID,-0.0169808,VALID,19.3801,VALID,77,VALID,0.327567,
2004-09-07, 01:18:00,VALID,917.976,VALID,0,VALID,100,VALID,0,VALID,19.311,VALID,77,VALID,0.239784,
2004-09-07, 01:19:00,VALID,917.96,VALID,0,VALID,100,VALID,0.0169808,VALID,19.2827,VALID,77,VALID,0,
2004-09-07, 01:20:00,VALID,917.983,VALID,0,VALID,100,VALID,0.0169808,VALID,19.2603,VALID,77,VALID,0.0143532,
2004-09-07, 01:21:00,VALID,917.956,VALID,0,VALID,100,VALID,0,VALID,19.2112,VALID,77,VALID,0,
2004-09-07, 01:22:00,VALID,917.972,VALID,0,VALID,100,VALID,0,VALID,19.2117,VALID,89,VALID,0.200763,
2004-09-07, 01:23:00,VALID,917.975,VALID,0,VALID,100,VALID,-0.0169808,VALID,19.1699,VALID,112,VALID,0.477805,
2004-09-07, 01:24:00,VALID,917.98,VALID,0,VALID,100,VALID,0.0339617,VALID,19.0694,VALID,112,VALID,0.220084,
2004-09-07, 01:25:00,VALID,917.988,VALID,0,VALID,100,VALID,0.0169808,VALID,19.0115,VALID,113,VALID,0.0419922,
2004-09-07, 01:26:00,VALID,917.998,VALID,0,VALID,100,VALID,0,VALID,19.0113,VALID,113,VALID,0.00451389,
2004-09-07, 01:27:00,VALID,917.999,VALID,0,VALID,100,VALID,0,VALID,19.0408,VALID,113,VALID,0.0941051,
2004-09-07, 01:28:00,VALID,917.999,VALID,0,VALID,100,VALID,0,VALID,19.0599,VALID,113,VALID,0.142578,
2004-09-07, 01:29:00,VALID,918,VALID,0,VALID,100,VALID,0,VALID,19.0659,VALID,113,VALID,0.157465,
2004-09-07, 01:30:00,VALID,917.989,VALID,0,VALID,100,VALID,0.0169808,VALID,19.0761,VALID,183,VALID,0.419759,
2004-09-07, 01:31:00,VALID,917.971,VALID,0,VALID,100,VALID,0,VALID,19.0726,VALID,187,VALID,0.147135,
2004-09-07, 01:32:00,VALID,917.945,VALID,0,VALID,100,VALID,0,VALID,19.1021,VALID,187,VALID,0,
2004-09-07, 01:33:00,VALID,917.927,VALID,0,VALID,100,VALID,0,VALID,19.0987,VALID,187,VALID,0.195694,
2004-09-07, 01:34:00,VALID,917.915,VALID,0,VALID,100,VALID,0,VALID,19.1148,VALID,187,VALID,0.0173611,
2004-09-07, 01:35:00,VALID,917.893,VALID,0,VALID,100,VALID,-0.0169808,VALID,19.1379,VALID,187,VALID,0.0104759,
2004-09-07, 01:36:00,VALID,917.895,VALID,0,VALID,100,VALID,0,VALID,19.1312,VALID,185,VALID,0.145275,
2004-09-07, 01:37:00,VALID,917.878,VALID,0,VALID,100,VALID,0,VALID,19.1473,VALID,73,VALID,0.307664,
2004-09-07, 01:38:00,VALID,917.876,VALID,0,VALID,100,VALID,0,VALID,19.1799,VALID,69,VALID,0,
2004-09-07, 01:39:00,VALID,917.876,VALID,0,VALID,100,VALID,0,VALID,19.2022,VALID,69,VALID,0.00449219,
2004-09-07, 01:40:00,VALID,917.867,VALID,0,VALID,100,VALID,0,VALID,19.2149,VALID,69,VALID,0,
2004-09-07, 01:41:00,VALID,917.851,VALID,0,VALID,100,VALID,0,VALID,19.2574,VALID,69,VALID,0.109747,
2004-09-07, 01:42:00,VALID,917.848,VALID,0,VALID,100,VALID,0,VALID,19.276,VALID,69,VALID,0,
2004-09-07, 01:43:00,VALID,917.854,VALID,0,VALID,100,VALID,0,VALID,19.2988,VALID,69,VALID,0.0785156,
2004-09-07, 01:44:00,VALID,917.831,VALID,0,VALID,100,VALID,0,VALID,19.3279,VALID,69,VALID,0.191964,
2004-09-07, 01:45:00,VALID,917.826,VALID,0,VALID,100,VALID,0,VALID,19.3473,VALID,69,VALID,0.30069,
2004-09-07, 01:46:00,VALID,917.815,VALID,0,VALID,100,VALID,0.0169808,VALID,19.3833,VALID,69,VALID,0.037157,
2004-09-07, 01:47:00,VALID,917.807,VALID,0,VALID,100,VALID,0.0339617,VALID,19.3989,VALID,69,VALID,0,
2004-09-07, 01:48:00,VALID,917.788,VALID,0,VALID,100,VALID,0.0169808,VALID,19.4183,VALID,69,VALID,0,
2004-09-07, 01:49:00,VALID,917.796,VALID,0,VALID,100,VALID,0.0169808,VALID,19.4148,VALID,69,VALID,0.104226,
2004-09-07, 01:50:00,VALID,917.787,VALID,0,VALID,100,VALID,0,VALID,19.4243,VALID,69,VALID,0.135671,
2004-09-07, 01:51:00,VALID,917.788,VALID,0,VALID,100,VALID,0,VALID,19.4409,VALID,82,VALID,0.470567,
2004-09-07, 01:52:00,VALID,917.777,VALID,0,VALID,100,VALID,0.0169808,VALID,19.4474,VALID,105,VALID,0.326265,
2004-09-07, 01:53:00,VALID,917.764,VALID,0,VALID,100,VALID,-0.0169808,VALID,19.4466,VALID,157,VALID,0.665516,
2004-09-07, 01:54:00,VALID,917.744,VALID,0,VALID,100,VALID,0,VALID,19.4437,VALID,169,VALID,0.704144,
2004-09-07, 01:55:00,VALID,917.726,VALID,0,VALID,100,VALID,0,VALID,19.4439,VALID,134,VALID,0.77255,
2004-09-07, 01:56:00,VALID,917.699,VALID,0,VALID,100,VALID,0.0169808,VALID,19.431,VALID,122,VALID,0.966016,
2004-09-07, 01:57:00,VALID,917.686,VALID,0,VALID,100,VALID,0,VALID,19.3855,VALID,89,VALID,0.741425,
2004-09-07, 01:58:00,VALID,917.665,VALID,0,VALID,100,VALID,0,VALID,19.3662,VALID,49,VALID,1.15745,
2004-09-07, 01:59:00,VALID,917.658,VALID,0,VALID,100,VALID,0.0509425,VALID,19.3535,VALID,50,VALID,0.997159,
2004-09-07, 02:00:00,VALID,917.66,VALID,0,VALID,100,VALID,0.0169808,VALID,19.3277,VALID,78,VALID,1.13772,
2004-09-07, 02:01:00,VALID,917.671,VALID,0,VALID,100,VALID,0,VALID,19.312,VALID,93,VALID,0.928622,
2004-09-07, 02:02:00,VALID,917.659,VALID,0,VALID,100,VALID,0.0169808,VALID,19.2762,VALID,88,VALID,0.793241,
2004-09-07, 02:03:00,VALID,917.658,VALID,0,VALID,100,VALID,0.0339617,VALID,19.2469,VALID,69,VALID,0.686198,
2004-09-07, 02:04:00,VALID,917.647,VALID,0,VALID,100,VALID,0.0339617,VALID,19.2243,VALID,56,VALID,0.363281,
2004-09-07, 02:05:00,VALID,917.629,VALID,0,VALID,100,VALID,0,VALID,19.2084,VALID,105,VALID,0.566501,
2004-09-07, 02:06:00,VALID,917.605,VALID,0,VALID,100,VALID,0,VALID,19.1662,VALID,124,VALID,0.777344,
2004-09-07, 02:07:00,VALID,917.592,VALID,0,VALID,99.9807,VALID,0,VALID,19.1084,VALID,107,VALID,0.907703,
2004-09-07, 02:08:00,VALID,917.561,VALID,0,VALID,99.9934,VALID,0,VALID,19.0403,VALID,97,VALID,0.625744,
2004-09-07, 02:09:00,VALID,917.552,VALID,0,VALID,100,VALID,0,VALID,19.0113,VALID,68,VALID,0.552778,
2004-09-07, 02:10:00,VALID,917.54,VALID,0,VALID,100,VALID,0,VALID,18.9983,VALID,47,VALID,0.788336,
2004-09-07, 02:11:00,VALID,917.538,VALID,0,VALID,100,VALID,0,VALID,18.9725,VALID,44,VALID,0.731957,
2004-09-07, 02:12:00,VALID,917.539,VALID,0,VALID,100,VALID,-0.0169808,VALID,18.9534,VALID,48,VALID,0.965216,
2004-09-07, 02:13:00,VALID,917.549,VALID,0,VALID,100,VALID,0,VALID,18.9375,VALID,65,VALID,0.868676,
2004-09-07, 02:14:00,VALID,917.562,VALID,0,VALID,100,VALID,0,VALID,18.8687,VALID,76,VALID,0.89444,
2004-09-07, 02:15:00,VALID,917.569,VALID,0,VALID,100,VALID,0.0169808,VALID,18.8344,VALID,76,VALID,0.638021,
2004-09-07, 02:16:00,VALID,917.576,VALID,0,VALID,100,VALID,0.0169808,VALID,18.792,VALID,84,VALID,0.478871,
2004-09-07, 02:17:00,VALID,917.581,VALID,0,VALID,100,VALID,0.0169808,VALID,18.7631,VALID,97,VALID,0.228516,
2004-09-07, 02:18:00,VALID,917.573,VALID,0,VALID,100,VALID,0,VALID,18.7341,VALID,97,VALID,0.0494792,
2004-09-07, 02:19:00,VALID,917.578,VALID,0,VALID,100,VALID,0,VALID,18.7113,VALID,97,VALID,0.292259,
2004-09-07, 02:20:00,VALID,917.573,VALID,0,VALID,100,VALID,0,VALID,18.6921,VALID,97,VALID,0.0859375,
2004-09-07, 02:21:00,VALID,917.593,VALID,0,VALID,100,VALID,0.0169808,VALID,18.685,VALID,97,VALID,0.222561,
2004-09-07, 02:22:00,VALID,917.61,VALID,0,VALID,100,VALID,0.0169808,VALID,18.6656,VALID,102,VALID,0.402616,
2004-09-07, 02:23:00,VALID,917.611,VALID,0,VALID,100,VALID,0.0509425,VALID,18.6661,VALID,110,VALID,0.67702,
2004-09-07, 02:24:00,VALID,917.618,VALID,0,VALID,100,VALID,0.0169808,VALID,18.6402,VALID,114,VALID,0.659412,
2004-09-07, 02:25:00,VALID,917.62,VALID,0,VALID,100,VALID,0,VALID,18.6082,VALID,115,VALID,0.617535,
2004-09-07, 02:26:00,VALID,917.636,VALID,0,VALID,100,VALID,0,VALID,18.5821,VALID,79,VALID,0.558966,
2004-09-07, 02:27:00,VALID,917.644,VALID,0,VALID,100,VALID,0.0339617,VALID,18.5886,VALID,45,VALID,0.774891,
2004-09-07, 02:28:00,VALID,917.641,VALID,0,VALID,100,VALID,0,VALID,18.5953,VALID,49,VALID,0.84375,
2004-09-07, 02:29:00,VALID,917.644,VALID,0,VALID,100,VALID,0.0169808,VALID,18.5916,VALID,59,VALID,0.788881,
2004-09-07, 02:30:00,VALID,917.639,VALID,0,VALID,100,VALID,-0.0169808,VALID,18.5731,VALID,84,VALID,0.639323,
2004-09-07, 02:31:00,VALID,917.633,VALID,0,VALID,100,VALID,0,VALID,18.5498,VALID,99,VALID,0.750762,
2004-09-07, 02:32:00,VALID,917.633,VALID,0,VALID,100,VALID,0.0169808,VALID,18.5302,VALID,107,VALID,0.683036,
2004-09-07, 02:33:00,VALID,917.632,VALID,0,VALID,100,VALID,0,VALID,18.5305,VALID,109,VALID,0.632635,
2004-09-07, 02:34:00,VALID,917.622,VALID,0,VALID,100,VALID,0.0169808,VALID,18.5273,VALID,128,VALID,0.73952,
2004-09-07, 02:35:00,VALID,917.625,VALID,0,VALID,100,VALID,0,VALID,18.5305,VALID,128,VALID,0.94029,
2004-09-07, 02:36:00,VALID,917.627,VALID,0,VALID,100,VALID,0.0169808,VALID,18.5277,VALID,129,VALID,0.752778,
2004-09-07, 02:37:00,VALID,917.63,VALID,0,VALID,100,VALID,0.0169808,VALID,18.5208,VALID,130,VALID,0.439098,
2004-09-07, 02:38:00,VALID,917.649,VALID,0,VALID,100,VALID,0,VALID,18.5079,VALID,130,VALID,0.490699,
2004-09-07, 02:39:00,VALID,917.667,VALID,0,VALID,100,VALID,0.0169808,VALID,18.5021,VALID,127,VALID,0.47745,
2004-09-07, 02:40:00,VALID,917.687,VALID,0,VALID,100,VALID,0,VALID,18.4991,VALID,126,VALID,0.739099,
2004-09-07, 02:41:00,VALID,917.701,VALID,0,VALID,100,VALID,0,VALID,18.4795,VALID,133,VALID,0.788477,
2004-09-07, 02:42:00,VALID,917.692,VALID,0,VALID,100,VALID,-0.0339617,VALID,18.5021,VALID,135,VALID,0.671376,
2004-09-07, 02:43:00,VALID,917.701,VALID,0,VALID,100,VALID,-0.0169808,VALID,18.4954,VALID,134,VALID,0.681548,
2004-09-07, 02:44:00,VALID,917.701,VALID,0,VALID,100,VALID,0,VALID,18.5123,VALID,128,VALID,0.807049,
2004-09-07, 02:45:00,VALID,917.699,VALID,0,VALID,100,VALID,0,VALID,18.5021,VALID,121,VALID,0.611793,
2004-09-07, 02:46:00,VALID,917.703,VALID,0,VALID,100,VALID,-0.0339617,VALID,18.5254,VALID,120,VALID,0.202592,
2004-09-07, 02:47:00,VALID,917.696,VALID,0,VALID,100,VALID,0.0169808,VALID,18.5118,VALID,120,VALID,0.65,
2004-09-07, 02:48:00,VALID,917.696,VALID,0,VALID,100,VALID,0,VALID,18.5116,VALID,120,VALID,0.739397,
2004-09-07, 02:49:00,VALID,917.712,VALID,0,VALID,100,VALID,-0.0169808,VALID,18.5284,VALID,114,VALID,0.689258,
2004-09-07, 02:50:00,VALID,917.707,VALID,0,VALID,100,VALID,-0.0169808,VALID,18.5187,VALID,108,VALID,0.904916,
2004-09-07, 02:51:00,VALID,917.712,VALID,0,VALID,100,VALID,-0.0169808,VALID,18.5123,VALID,109,VALID,0.866997,
2004-09-07, 02:52:00,VALID,917.698,VALID,0,VALID,100,VALID,-0.0169808,VALID,18.519,VALID,115,VALID,0.750545,
2004-09-07, 02:53:00,VALID,917.705,VALID,0,VALID,100,VALID,0,VALID,18.5088,VALID,110,VALID,0.922602,
2004-09-07, 02:54:00,VALID,917.715,VALID,0,VALID,100,VALID,0,VALID,18.4991,VALID,134,VALID,0.696378,
2004-09-07, 02:55:00,VALID,917.726,VALID,0,VALID,100,VALID,-0.0169808,VALID,18.5058,VALID,119,VALID,0.911585,
2004-09-07, 02:56:00,VALID,917.75,VALID,0,VALID,100,VALID,-0.0679233,VALID,18.4931,VALID,120,VALID,0.991406,
2004-09-07, 02:57:00,VALID,917.753,VALID,0,VALID,100,VALID,-0.0169808,VALID,18.4828,VALID,118,VALID,1.02604,
2004-09-07, 02:58:00,VALID,917.761,VALID,0,VALID,100,VALID,-0.0169808,VALID,18.4862,VALID,119,VALID,1.10347,
2004-09-07, 02:59:00,VALID,917.754,VALID,0,VALID,100,VALID,-0.0169808,VALID,18.4897,VALID,109,VALID,0.767485,
2004-09-07, 03:00:00,VALID,917.759,VALID,0,VALID,100,VALID,0,VALID,18.4931,VALID,117,VALID,0.817042,
2004-09-07, 03:01:00,VALID,917.748,VALID,0,VALID,100,VALID,-0.0339617,VALID,18.4964,VALID,137,VALID,1.01875,
2004-09-07, 03:02:00,VALID,917.746,VALID,0,VALID,100,VALID,-0.0169808,VALID,18.4964,VALID,126,VALID,0.794876,
2004-09-07, 03:03:00,VALID,917.75,VALID,0,VALID,100,VALID,-0.0169808,VALID,18.4994,VALID,117,VALID,0.559775,
2004-09-07, 03:04:00,VALID,917.749,VALID,0,VALID,100,VALID,0,VALID,18.5061,VALID,129,VALID,0.929324,
2004-09-07, 03:05:00,VALID,917.756,VALID,0,VALID,100,VALID,-0.0169808,VALID,18.4996,VALID,135,VALID,1.07715,
2004-09-07, 03:06:00,VALID,917.751,VALID,0,VALID,100,VALID,0,VALID,18.5058,VALID,140,VALID,0.736662,
2004-09-07, 03:07:00,VALID,917.749,VALID,0,VALID,100,VALID,0,VALID,18.5157,VALID,149,VALID,0.868304,
2004-09-07, 03:08:00,VALID,917.74,VALID,0,VALID,100,VALID,0,VALID,18.519,VALID,142,VALID,0.688194,
2004-09-07, 03:09:00,VALID,917.724,VALID,0,VALID,100,VALID,0,VALID,18.5284,VALID,127,VALID,0.718006,
2004-09-07, 03:10:00,VALID,917.712,VALID,0,VALID,100,VALID,-0.0339617,VALID,18.5217,VALID,105,VALID,0.820131,
2004-09-07, 03:11:00,VALID,917.686,VALID,0,VALID,100,VALID,-0.0169808,VALID,18.5185,VALID,89,VALID,0.743331,
2004-09-07, 03:12:00,VALID,917.668,VALID,0,VALID,100,VALID,0.0169808,VALID,18.545,VALID,76,VALID,0.674479,
2004-09-07, 03:13:00,VALID,917.659,VALID,0,VALID,100,VALID,0,VALID,18.5316,VALID,81,VALID,0.577939,
2004-09-07, 03:14:00,VALID,917.655,VALID,0,VALID,100,VALID,0,VALID,18.5381,VALID,91,VALID,0.525436,
2004-09-07, 03:15:00,VALID,917.644,VALID,0,VALID,100,VALID,-0.0339617,VALID,18.5446,VALID,91,VALID,0.683061,
2004-09-07, 03:16:00,VALID,917.651,VALID,0,VALID,100,VALID,-0.0169808,VALID,18.5441,VALID,91,VALID,0.676781,
2004-09-07, 03:17:00,VALID,917.649,VALID,0,VALID,100,VALID,-0.0169808,VALID,18.5512,VALID,92,VALID,0.650977,
2004-09-07, 03:18:00,VALID,917.638,VALID,0,VALID,100,VALID,0,VALID,18.5512,VALID,97,VALID,0.781613,
2004-09-07, 03:19:00,VALID,917.631,VALID,0,VALID,100,VALID,-0.0169808,VALID,18.5676,VALID,114,VALID,0.75436,
2004-09-07, 03:20:00,VALID,917.643,VALID,0,VALID,100,VALID,-0.0169808,VALID,18.5669,VALID,133,VALID,1.01192,
2004-09-07, 03:21:00,VALID,917.639,VALID,0,VALID,100,VALID,0,VALID,18.5771,VALID,137,VALID,1.0496,
2004-09-07, 03:22:00,VALID,917.628,VALID,0,VALID,100,VALID,-0.0169808,VALID,18.5577,VALID,147,VALID,1.06136,
2004-09-07, 03:23:00,VALID,917.611,VALID,0,VALID,100,VALID,0,VALID,18.5446,VALID,149,VALID,0.980378,
2004-09-07, 03:24:00,VALID,917.611,VALID,0,VALID,100,VALID,0,VALID,18.5418,VALID,151,VALID,1.03409,
2004-09-07, 03:25:00,VALID,917.595,VALID,0,VALID,100,VALID,-0.0169808,VALID,18.5222,VALID,153,VALID,1.0124,
2004-09-07, 03:26:00,VALID,917.578,VALID,0,VALID,100,VALID,0,VALID,18.5284,VALID,154,VALID,0.645508,
2004-09-07, 03:27:00,VALID,917.571,VALID,0,VALID,100,VALID,-0.0169808,VALID,18.5381,VALID,147,VALID,0.52939,
2004-09-07, 03:28:00,VALID,917.569,VALID,0,VALID,100,VALID,0,VALID,18.5446,VALID,145,VALID,0.521662,
2004-09-07, 03:29:00,VALID,917.56,VALID,0,VALID,100,VALID,-0.0339617,VALID,18.5512,VALID,147,VALID,0.373365,
2004-09-07, 03:30:00,VALID,917.561,VALID,0,VALID,100,VALID,-0.0169808,VALID,18.551,VALID,147,VALID,0.397917,
2004-09-07, 03:31:00,VALID,917.558,VALID,0,VALID,100,VALID,-0.0169808,VALID,18.5413,VALID,146,VALID,0.134301,
2004-09-07, 03:32:00,VALID,917.542,VALID,0,VALID,100,VALID,-0.0169808,VALID,18.5386,VALID,120,VALID,0.551758,
2004-09-07, 03:33:00,VALID,917.539,VALID,0,VALID,100,VALID,-0.0339617,VALID,18.4994,VALID,116,VALID,0.449886,
2004-09-07, 03:34:00,VALID,917.522,VALID,0,VALID,100,VALID,-0.0169808,VALID,18.4964,VALID,116,VALID,0.284951,
2004-09-07, 03:35:00,VALID,917.514,VALID,0,VALID,100,VALID,-0.0169808,VALID,18.4899,VALID,116,VALID,0.21532,
2004-09-07, 03:36:00,VALID,917.521,VALID,0,VALID,100,VALID,-0.0169808,VALID,18.4733,VALID,116,VALID,0.238467,
2004-09-07, 03:37:00,VALID,917.535,VALID,0,VALID,100,VALID,0,VALID,18.4542,VALID,116,VALID,0.230291,
2004-09-07, 03:38:00,VALID,917.539,VALID,0,VALID,100,VALID,-0.0169808,VALID,18.4316,VALID,116,VALID,0.0814732,
2004-09-07, 03:39:00,VALID,917.541,VALID,0,VALID,100,VALID,0,VALID,18.4127,VALID,116,VALID,0.169034,
2004-09-07, 03:40:00,VALID,917.54,VALID,0,VALID,100,VALID,0,VALID,18.3772,VALID,116,VALID,0.405878,
2004-09-07, 03:41:00,VALID,917.532,VALID,0,VALID,100,VALID,0,VALID,18.3273,VALID,116,VALID,0.299924,
2004-09-07, 03:42:00,VALID,917.513,VALID,0,VALID,100,VALID,0,VALID,18.3248,VALID,116,VALID,0.283913,
2004-09-07, 03:43:00,VALID,917.511,VALID,0,VALID,100,VALID,-0.0169808,VALID,18.3317,VALID,116,VALID,0.222098,
2004-09-07, 03:44:00,VALID,917.492,VALID,0,VALID,100,VALID,0,VALID,18.3223,VALID,116,VALID,0.53218,